EIN850 EICK-LEBB

Flight info

Callsign EIN850
Flight time 1h 32m
Altitude 23000
Route ERTER1N ERTER DCT LEDGO N160 EVCOR/N0455F390 DCT DOLUR DCT IDRIK DCT NENEM N867 MAPAX
Aircraft A20N/M-SDE2E3FGHIRWXY/LB1

Departure

Time 2026-05-05 17:54
Airport Cork International Airport (EICK)

Arrival

Time 2026-05-05 19:26
Airport Bilbao Airport (LEBB)
Time Latitude Longitude Altitude Speed Heading
2026-05-05 17:27 51.84890 -8.49089 511 ft 0 kts 69°
2026-05-05 17:44 51.84890 -8.49090 511 ft 0 kts 69°
2026-05-05 17:45 51.84885 -8.49110 511 ft 2 kts 69°
2026-05-05 17:45 51.84879 -8.49134 509 ft 2 kts 70°
2026-05-05 17:45 51.84874 -8.49158 509 ft 2 kts 69°
2026-05-05 17:45 51.84868 -8.49182 507 ft 2 kts 69°
2026-05-05 17:46 51.84862 -8.49205 506 ft 2 kts 69°
2026-05-05 17:46 51.84860 -8.49228 505 ft 2 kts 115°
2026-05-05 17:46 51.84868 -8.49243 504 ft 1 kts 162°
2026-05-05 17:46 51.84875 -8.49245 504 ft 0 kts 161°
2026-05-05 17:48 51.84874 -8.49245 504 ft 0 kts 161°
2026-05-05 17:48 51.84858 -8.49237 504 ft 4 kts 164°
2026-05-05 17:48 51.84807 -8.49219 504 ft 10 kts 170°
2026-05-05 17:49 51.84720 -8.49178 502 ft 13 kts 162°
2026-05-05 17:49 51.84621 -8.49120 500 ft 14 kts 160°
2026-05-05 17:49 51.84510 -8.49056 497 ft 15 kts 161°
2026-05-05 17:49 51.84396 -8.48991 493 ft 17 kts 169°
2026-05-05 17:50 51.84307 -8.49109 487 ft 19 kts 240°
2026-05-05 17:50 51.84180 -8.49143 482 ft 21 kts 161°
2026-05-05 17:50 51.84029 -8.49057 476 ft 23 kts 161°
2026-05-05 17:50 51.83861 -8.48956 472 ft 24 kts 160°
2026-05-05 17:51 51.83685 -8.48852 468 ft 24 kts 160°
2026-05-05 17:51 51.83505 -8.48745 468 ft 23 kts 160°
2026-05-05 17:51 51.83346 -8.48641 468 ft 17 kts 146°
2026-05-05 17:51 51.83250 -8.48543 466 ft 17 kts 220°
2026-05-05 17:52 51.83277 -8.48615 467 ft 9 kts 348°
2026-05-05 17:52 51.83331 -8.48641 468 ft 0 kts 340°
2026-05-05 17:53 51.83360 -8.48658 468 ft 11 kts 340°
2026-05-05 17:53 51.83629 -8.48818 468 ft 78 kts 340°
2026-05-05 17:53 51.84399 -8.49272 489 ft 145 kts 340°
2026-05-05 17:53 51.85548 -8.49963 784 ft 175 kts 340°
2026-05-05 17:54 51.86779 -8.50661 1392 ft 184 kts 341°
2026-05-05 17:54 51.88055 -8.51316 2194 ft 184 kts 344°
2026-05-05 17:54 51.89352 -8.51661 2873 ft 192 kts
2026-05-05 17:54 51.90618 -8.50629 3314 ft 213 kts 47°
2026-05-05 17:55 51.91351 -8.48373 3856 ft 233 kts 82°
2026-05-05 17:55 51.91062 -8.45550 4485 ft 251 kts 118°
2026-05-05 17:55 51.90134 -8.43025 5335 ft 259 kts 120°
2026-05-05 17:55 51.89173 -8.40247 6364 ft 263 kts 118°
2026-05-05 17:56 51.88262 -8.37502 7356 ft 266 kts 118°
2026-05-05 17:56 51.87351 -8.34736 8324 ft 270 kts 118°
2026-05-05 17:56 51.86444 -8.31979 9261 ft 274 kts 118°
2026-05-05 17:56 51.85541 -8.29244 10161 ft 277 kts 119°
2026-05-05 17:57 51.84492 -8.26514 10857 ft 289 kts 126°
2026-05-05 17:57 51.83116 -8.23785 11378 ft 308 kts 133°
2026-05-05 17:57 51.81567 -8.21155 11848 ft 326 kts 134°
2026-05-05 17:57 51.79901 -8.18396 12277 ft 345 kts 134°
2026-05-05 17:58 51.78096 -8.15408 12675 ft 364 kts 134°
2026-05-05 17:58 51.76239 -8.12320 13145 ft 378 kts 134°
2026-05-05 17:58 51.74310 -8.09178 13887 ft 383 kts 138°
2026-05-05 17:58 51.71920 -8.06781 14650 ft 387 kts 159°
2026-05-05 17:59 51.69190 -8.05838 15399 ft 391 kts 178°
2026-05-05 17:59 51.66347 -8.05978 16134 ft 394 kts 182°
2026-05-05 17:59 51.63588 -8.06037 16793 ft 399 kts 180°
2026-05-05 17:59 51.60788 -8.06030 17448 ft 403 kts 180°
2026-05-05 18:00 51.57835 -8.05635 18090 ft 407 kts 167°
2026-05-05 18:00 51.55031 -8.03833 18746 ft 411 kts 149°
2026-05-05 18:00 51.52640 -8.00762 19407 ft 414 kts 136°
2026-05-05 18:00 51.50372 -7.97228 20052 ft 418 kts 135°
2026-05-05 18:01 51.48056 -7.93592 20676 ft 422 kts 135°
2026-05-05 18:01 51.45690 -7.89907 21299 ft 426 kts 136°
2026-05-05 18:01 51.43387 -7.86348 21877 ft 430 kts 136°
2026-05-05 18:01 51.41050 -7.82758 22438 ft 433 kts 136°
2026-05-05 18:02 51.38731 -7.79209 22885 ft 437 kts 136°
2026-05-05 18:02 51.36398 -7.75646 22996 ft 438 kts 136°
2026-05-05 18:02 51.34095 -7.72136 22999 ft 437 kts 136°
2026-05-05 18:02 51.31730 -7.68537 23000 ft 437 kts 136°
2026-05-05 18:03 51.29406 -7.65006 23000 ft 437 kts 136°
2026-05-05 18:03 51.27082 -7.61479 23000 ft 437 kts 136°
2026-05-05 18:03 51.24765 -7.57972 23000 ft 437 kts 136°
2026-05-05 18:03 51.22414 -7.54417 23000 ft 437 kts 136°
2026-05-05 18:04 51.20056 -7.50857 23000 ft 437 kts 136°
2026-05-05 18:04 51.17686 -7.47286 23000 ft 437 kts 136°
2026-05-05 18:04 51.15311 -7.43710 23000 ft 437 kts 136°
2026-05-05 18:04 51.12933 -7.40136 23000 ft 437 kts 136°
2026-05-05 18:05 51.10604 -7.36638 23000 ft 437 kts 136°
2026-05-05 18:05 51.08291 -7.33171 23000 ft 437 kts 137°
2026-05-05 18:05 51.05985 -7.29719 23000 ft 437 kts 137°
2026-05-05 18:05 51.03647 -7.26223 23000 ft 437 kts 137°
2026-05-05 18:06 51.01304 -7.22726 23000 ft 437 kts 137°
2026-05-05 18:06 51.00495 -7.21518 23000 ft 437 kts 137°
2026-05-05 18:06 50.96582 -7.15692 23000 ft 437 kts 137°
2026-05-05 18:06 50.94211 -7.12170 23000 ft 437 kts 137°
2026-05-05 18:07 50.91851 -7.08676 23080 ft 442 kts 137°
2026-05-05 18:07 50.89504 -7.05216 23595 ft 444 kts 137°
2026-05-05 18:07 50.87128 -7.01717 24186 ft 445 kts 137°
2026-05-05 18:07 50.84747 -6.98218 24664 ft 448 kts 137°
2026-05-05 18:08 50.82340 -6.94683 25107 ft 451 kts 137°
2026-05-05 18:08 50.79932 -6.91151 25543 ft 454 kts 137°
2026-05-05 18:08 50.77578 -6.87703 26095 ft 453 kts 137°
2026-05-05 18:08 50.75287 -6.84352 26688 ft 451 kts 137°
2026-05-05 18:09 50.72950 -6.80938 27255 ft 449 kts 137°
2026-05-05 18:09 50.70612 -6.77528 27787 ft 448 kts 137°
2026-05-05 18:09 50.68296 -6.74153 28310 ft 448 kts 137°
2026-05-05 18:09 50.65927 -6.70708 28841 ft 447 kts 137°
2026-05-05 18:10 50.63609 -6.67340 29357 ft 446 kts 137°
2026-05-05 18:10 50.61272 -6.63952 29866 ft 445 kts 137°
2026-05-05 18:10 50.58971 -6.60618 30347 ft 444 kts 137°
2026-05-05 18:10 50.56659 -6.57274 30832 ft 443 kts 137°
2026-05-05 18:11 50.54256 -6.53803 31328 ft 442 kts 137°
2026-05-05 18:11 50.51870 -6.50361 31809 ft 441 kts 137°
2026-05-05 18:11 50.49563 -6.47038 32246 ft 440 kts 137°
2026-05-05 18:11 50.47223 -6.43673 32675 ft 440 kts 137°
2026-05-05 18:12 50.44863 -6.40283 33099 ft 439 kts 137°
2026-05-05 18:12 50.42479 -6.36864 33513 ft 438 kts 137°
2026-05-05 18:12 50.40199 -6.33597 33899 ft 437 kts 138°
2026-05-05 18:12 50.37938 -6.30364 34268 ft 436 kts 138°
2026-05-05 18:13 50.35677 -6.27135 34625 ft 436 kts 138°
2026-05-05 18:13 50.33376 -6.23853 34978 ft 435 kts 138°
2026-05-05 18:13 50.31100 -6.20610 35313 ft 434 kts 138°
2026-05-05 18:13 50.28817 -6.17362 35639 ft 434 kts 138°
2026-05-05 18:14 50.26490 -6.14056 35957 ft 433 kts 138°
2026-05-05 18:14 50.24204 -6.10814 36267 ft 432 kts 138°
2026-05-05 18:14 50.21947 -6.07615 36534 ft 432 kts 138°
2026-05-05 18:14 50.19674 -6.04401 36789 ft 432 kts 138°
2026-05-05 18:15 50.17423 -6.01219 37028 ft 432 kts 138°
2026-05-05 18:15 50.15158 -5.98023 37262 ft 432 kts 138°
2026-05-05 18:15 50.12908 -5.94852 37486 ft 432 kts 138°
2026-05-05 18:15 50.10647 -5.91670 37704 ft 432 kts 138°
2026-05-05 18:16 50.08396 -5.88507 37916 ft 432 kts 138°
2026-05-05 18:16 50.06134 -5.85331 38121 ft 432 kts 138°
2026-05-05 18:16 50.03870 -5.82158 38317 ft 432 kts 138°
2026-05-05 18:16 50.01650 -5.79050 38507 ft 432 kts 138°
2026-05-05 18:17 49.99374 -5.75868 38693 ft 432 kts 138°
2026-05-05 18:17 49.97121 -5.72722 38871 ft 432 kts 138°
2026-05-05 18:17 49.94833 -5.69531 38992 ft 433 kts 137°
2026-05-05 18:18 49.90220 -5.63112 38999 ft 432 kts 137°
2026-05-05 18:18 49.85679 -5.56808 39001 ft 432 kts 137°
2026-05-05 18:19 49.81119 -5.50497 39001 ft 432 kts 137°
2026-05-05 18:19 49.76565 -5.44208 39001 ft 432 kts 137°
2026-05-05 18:20 49.71979 -5.37892 39001 ft 432 kts 137°
2026-05-05 18:20 49.67430 -5.31643 39001 ft 432 kts 139°
2026-05-05 18:21 49.62837 -5.25350 39001 ft 432 kts 139°
2026-05-05 18:21 49.58281 -5.19123 39001 ft 432 kts 139°
2026-05-05 18:22 49.53716 -5.12904 39002 ft 433 kts 139°
2026-05-05 18:22 49.48897 -5.07001 39001 ft 433 kts 145°
2026-05-05 18:23 49.43655 -5.02011 39002 ft 433 kts 152°
2026-05-05 18:23 49.38225 -4.97763 39002 ft 433 kts 153°
2026-05-05 18:24 49.32792 -4.93538 39002 ft 433 kts 153°
2026-05-05 18:24 49.27393 -4.89344 39002 ft 433 kts 153°
2026-05-05 18:25 49.21997 -4.85162 39002 ft 433 kts 153°
2026-05-05 18:25 49.16613 -4.80999 39002 ft 433 kts 153°
2026-05-05 18:26 49.11165 -4.76796 39002 ft 433 kts 153°
2026-05-05 18:26 49.05731 -4.72615 39002 ft 433 kts 153°
2026-05-05 18:27 49.00320 -4.68462 39002 ft 432 kts 153°
2026-05-05 18:27 48.94920 -4.64327 39001 ft 432 kts 153°
2026-05-05 18:28 48.86856 -4.58171 39001 ft 432 kts 153°
2026-05-05 18:28 48.81480 -4.54079 39001 ft 432 kts 153°
2026-05-05 18:29 48.76134 -4.50021 39001 ft 432 kts 153°
2026-05-05 18:29 48.70759 -4.45950 39001 ft 432 kts 153°
2026-05-05 18:30 48.65373 -4.41880 39001 ft 432 kts 153°
2026-05-05 18:30 48.59971 -4.37808 39001 ft 432 kts 153°
2026-05-05 18:31 48.54605 -4.33773 39001 ft 432 kts 154°
2026-05-05 18:31 48.49224 -4.29736 39001 ft 432 kts 154°
2026-05-05 18:32 48.43861 -4.25722 39001 ft 432 kts 154°
2026-05-05 18:32 48.38461 -4.21691 39001 ft 432 kts 154°
2026-05-05 18:33 48.33110 -4.17704 39001 ft 432 kts 154°
2026-05-05 18:33 48.27723 -4.13701 39001 ft 432 kts 154°
2026-05-05 18:34 48.22329 -4.09702 39002 ft 432 kts 154°
2026-05-05 18:34 48.16922 -4.05704 39001 ft 433 kts 154°
2026-05-05 18:35 48.11486 -4.01693 39001 ft 433 kts 154°
2026-05-05 18:35 48.06105 -3.97731 39001 ft 433 kts 154°
2026-05-05 18:36 48.00704 -3.93765 39001 ft 433 kts 154°
2026-05-05 18:36 47.95267 -3.89780 39001 ft 433 kts 154°
2026-05-05 18:37 47.89823 -3.85801 39001 ft 433 kts 154°
2026-05-05 18:37 47.84379 -3.81830 39001 ft 433 kts 154°
2026-05-05 18:38 47.78938 -3.77870 39001 ft 433 kts 154°
2026-05-05 18:38 47.73449 -3.73884 39001 ft 433 kts 154°
2026-05-05 18:39 47.67948 -3.69904 39001 ft 433 kts 154°
2026-05-05 18:39 47.62025 -3.66348 39001 ft 433 kts 161°
2026-05-05 18:40 47.56090 -3.63979 39001 ft 433 kts 168°
2026-05-05 18:40 47.50058 -3.62677 39002 ft 433 kts 174°
2026-05-05 18:41 47.43988 -3.61803 39002 ft 432 kts 174°
2026-05-05 18:41 47.37946 -3.60921 39001 ft 432 kts 174°
2026-05-05 18:42 47.31927 -3.60042 39001 ft 432 kts 174°
2026-05-05 18:42 47.25930 -3.59167 39001 ft 432 kts 174°
2026-05-05 18:43 47.19907 -3.58291 39001 ft 432 kts 174°
2026-05-05 18:43 47.13918 -3.57421 39001 ft 432 kts 174°
2026-05-05 18:44 47.07863 -3.56543 39001 ft 432 kts 174°
2026-05-05 18:44 47.01814 -3.55668 39001 ft 432 kts 174°
2026-05-05 18:45 46.95815 -3.54802 39001 ft 432 kts 174°
2026-05-05 18:45 46.89794 -3.53935 39001 ft 432 kts 174°
2026-05-05 18:46 46.83793 -3.53073 39001 ft 432 kts 174°
2026-05-05 18:46 46.77736 -3.52205 39001 ft 432 kts 174°
2026-05-05 18:47 46.71675 -3.51338 39001 ft 432 kts 174°
2026-05-05 18:47 46.65535 -3.50462 39001 ft 432 kts 174°
2026-05-05 18:48 46.59446 -3.49595 39001 ft 432 kts 174°
2026-05-05 18:48 46.53324 -3.48725 39001 ft 432 kts 174°
2026-05-05 18:49 46.47226 -3.47861 39001 ft 432 kts 174°
2026-05-05 18:49 46.41183 -3.47006 39001 ft 432 kts 174°
2026-05-05 18:50 46.35115 -3.46150 39001 ft 432 kts 174°
2026-05-05 18:50 46.29021 -3.45292 39001 ft 432 kts 174°
2026-05-05 18:51 46.22954 -3.44440 39001 ft 432 kts 174°
2026-05-05 18:51 46.16915 -3.43593 39001 ft 432 kts 174°
2026-05-05 18:52 46.10897 -3.42752 39001 ft 432 kts 174°
2026-05-05 18:52 46.04858 -3.41909 39001 ft 432 kts 174°
2026-05-05 18:53 45.98840 -3.41071 39001 ft 432 kts 174°
2026-05-05 18:53 45.92817 -3.40234 39001 ft 432 kts 174°
2026-05-05 18:54 45.86739 -3.39391 39001 ft 432 kts 174°
2026-05-05 18:54 45.80642 -3.38548 39001 ft 432 kts 174°
2026-05-05 18:55 45.74569 -3.37710 39001 ft 432 kts 174°
2026-05-05 18:55 45.68433 -3.36864 39002 ft 432 kts 174°
2026-05-05 18:56 45.62352 -3.36029 39002 ft 432 kts 174°
2026-05-05 18:56 45.56188 -3.35183 39002 ft 432 kts 174°
2026-05-05 18:57 45.50152 -3.34358 39002 ft 432 kts 175°
2026-05-05 18:57 45.44052 -3.33525 39002 ft 432 kts 175°
2026-05-05 18:58 45.37943 -3.32693 39002 ft 432 kts 175°
2026-05-05 18:58 45.31843 -3.31863 39002 ft 432 kts 175°
2026-05-05 18:59 45.25748 -3.31036 39002 ft 432 kts 175°
2026-05-05 18:59 45.19642 -3.30210 39002 ft 432 kts 175°
2026-05-05 19:00 45.13504 -3.29380 39002 ft 432 kts 175°
2026-05-05 19:00 45.07464 -3.28566 39002 ft 432 kts 175°
2026-05-05 19:01 45.01365 -3.27745 39002 ft 432 kts 175°
2026-05-05 19:01 44.95283 -3.26929 39002 ft 432 kts 175°
2026-05-05 19:02 44.89292 -3.26127 39002 ft 432 kts 175°
2026-05-05 19:02 44.83282 -3.25324 39001 ft 432 kts 175°
2026-05-05 19:03 44.77232 -3.24517 39001 ft 432 kts 175°
2026-05-05 19:03 44.71182 -3.23712 39001 ft 432 kts 175°
2026-05-05 19:04 44.65136 -3.22909 39001 ft 432 kts 175°
2026-05-05 19:04 44.59050 -3.22103 39001 ft 432 kts 175°
2026-05-05 19:05 44.55958 -3.21694 38650 ft 435 kts 175°
2026-05-05 19:05 44.52890 -3.21288 38030 ft 436 kts 175°
2026-05-05 19:05 44.49817 -3.20883 37418 ft 437 kts 175°
2026-05-05 19:05 44.46712 -3.20473 36798 ft 437 kts 175°
2026-05-05 19:06 44.43584 -3.20061 36186 ft 437 kts 175°
2026-05-05 19:06 44.40478 -3.19652 35499 ft 437 kts 175°
2026-05-05 19:06 44.37362 -3.19242 34849 ft 437 kts 175°
2026-05-05 19:06 44.34187 -3.18825 34194 ft 437 kts 175°
2026-05-05 19:07 44.30992 -3.18406 33529 ft 437 kts 175°
2026-05-05 19:07 44.28833 -3.18122 33080 ft 437 kts 175°
2026-05-05 19:07 44.24426 -3.17545 32137 ft 437 kts 175°
2026-05-05 19:07 44.21255 -3.17130 31439 ft 437 kts 175°
2026-05-05 19:08 44.18030 -3.16708 30698 ft 438 kts 175°
2026-05-05 19:08 44.14916 -3.16301 29962 ft 439 kts 175°
2026-05-05 19:08 44.11766 -3.15890 29199 ft 441 kts 175°
2026-05-05 19:08 44.08601 -3.15478 28412 ft 442 kts 175°
2026-05-05 19:09 44.05446 -3.14967 27606 ft 443 kts 172°
2026-05-05 19:09 44.02251 -3.14201 26770 ft 444 kts 168°
2026-05-05 19:09 43.99065 -3.13275 25904 ft 446 kts 168°
2026-05-05 19:09 43.95814 -3.12331 24991 ft 447 kts 168°
2026-05-05 19:10 43.92523 -3.11376 24041 ft 449 kts 168°
2026-05-05 19:10 43.89254 -3.10430 23181 ft 448 kts 168°
2026-05-05 19:10 43.85921 -3.09466 22547 ft 442 kts 168°
2026-05-05 19:10 43.82589 -3.08507 21890 ft 435 kts 168°
2026-05-05 19:11 43.79415 -3.07588 21383 ft 426 kts 168°
2026-05-05 19:11 43.76215 -3.06663 20984 ft 413 kts 168°
2026-05-05 19:11 43.73132 -3.05776 20717 ft 398 kts 168°
2026-05-05 19:11 43.70148 -3.04919 20452 ft 385 kts 168°
2026-05-05 19:12 43.67352 -3.04087 20119 ft 375 kts 165°
2026-05-05 19:12 43.64745 -3.02385 19450 ft 375 kts 143°
2026-05-05 19:12 43.62841 -2.99513 18905 ft 370 kts 120°
2026-05-05 19:12 43.61900 -2.95932 18476 ft 364 kts 98°
2026-05-05 19:13 43.61894 -2.92186 18068 ft 362 kts 81°
2026-05-05 19:13 43.62465 -2.88636 17596 ft 360 kts 76°
2026-05-05 19:13 43.63011 -2.85091 17092 ft 358 kts 81°
2026-05-05 19:13 43.63216 -2.81458 16586 ft 355 kts 90°
2026-05-05 19:14 43.62981 -2.77882 16090 ft 352 kts 99°
2026-05-05 19:14 43.62370 -2.74376 15593 ft 349 kts 107°
2026-05-05 19:14 43.61471 -2.71055 15104 ft 346 kts 113°
2026-05-05 19:14 43.60348 -2.67927 14623 ft 343 kts 119°
2026-05-05 19:15 43.59022 -2.64944 14141 ft 340 kts 124°
2026-05-05 19:15 43.57546 -2.62171 13668 ft 337 kts 128°
2026-05-05 19:15 43.55954 -2.59617 13202 ft 335 kts 133°
2026-05-05 19:15 43.54265 -2.57281 12751 ft 332 kts 137°
2026-05-05 19:16 43.52465 -2.55122 12307 ft 329 kts 140°
2026-05-05 19:16 43.50584 -2.53146 11857 ft 328 kts 144°
2026-05-05 19:16 43.48573 -2.51341 11375 ft 327 kts 148°
2026-05-05 19:16 43.46476 -2.49734 10915 ft 324 kts 152°
2026-05-05 19:17 43.44348 -2.48353 10543 ft 318 kts 156°
2026-05-05 19:17 43.42239 -2.47213 10365 ft 306 kts 160°
2026-05-05 19:17 43.40169 -2.46296 10242 ft 293 kts 163°
2026-05-05 19:17 43.38146 -2.45585 10109 ft 280 kts 167°
2026-05-05 19:18 43.36050 -2.45028 9678 ft 280 kts 171°
2026-05-05 19:18 43.33879 -2.44644 9155 ft 283 kts 174°
2026-05-05 19:18 43.31631 -2.44445 8684 ft 276 kts 178°
2026-05-05 19:18 43.29488 -2.44441 8216 ft 274 kts 181°
2026-05-05 19:19 43.27434 -2.44607 7865 ft 270 kts 185°
2026-05-05 19:19 43.25384 -2.44939 7499 ft 266 kts 188°
2026-05-05 19:19 43.23361 -2.45433 7098 ft 265 kts 191°
2026-05-05 19:19 43.21277 -2.46121 6597 ft 267 kts 195°
2026-05-05 19:20 43.19259 -2.47039 6135 ft 266 kts 207°
2026-05-05 19:20 43.17795 -2.48982 5804 ft 260 kts 235°
2026-05-05 19:20 43.16788 -2.51248 5475 ft 257 kts 249°
2026-05-05 19:20 43.16619 -2.53967 5286 ft 256 kts 281°
2026-05-05 19:21 43.17283 -2.56524 5285 ft 258 kts 296°
2026-05-05 19:21 43.18216 -2.58833 5286 ft 258 kts 299°
2026-05-05 19:21 43.19147 -2.61122 5215 ft 251 kts 298°
2026-05-05 19:21 43.20014 -2.63382 4890 ft 249 kts 297°
2026-05-05 19:22 43.20851 -2.65657 4488 ft 250 kts 296°
2026-05-05 19:22 43.21672 -2.67923 4091 ft 251 kts 296°
2026-05-05 19:22 43.22457 -2.70094 3701 ft 242 kts 296°
2026-05-05 19:22 43.23236 -2.72242 3316 ft 232 kts 296°
2026-05-05 19:23 43.23961 -2.74236 2957 ft 216 kts 296°
2026-05-05 19:23 43.24643 -2.76108 2630 ft 203 kts 296°
2026-05-05 19:23 43.25273 -2.77835 2400 ft 186 kts 296°
2026-05-05 19:23 43.25864 -2.79455 2078 ft 178 kts 296°
2026-05-05 19:24 43.26443 -2.81041 1791 ft 168 kts 296°
2026-05-05 19:24 43.26977 -2.82503 1518 ft 159 kts 296°
2026-05-05 19:24 43.27478 -2.83870 1266 ft 152 kts 296°
2026-05-05 19:24 43.27947 -2.85154 1036 ft 144 kts 296°
2026-05-05 19:25 43.28394 -2.86375 820 ft 136 kts 296°
2026-05-05 19:25 43.28805 -2.87497 616 ft 128 kts 296°
2026-05-05 19:25 43.29193 -2.88557 394 ft 124 kts 296°
2026-05-05 19:25 43.29577 -2.89628 217 ft 123 kts 296°
2026-05-05 19:26 43.29963 -2.90658 129 ft 112 kts 298°
2026-05-05 19:26 43.30217 -2.91329 132 ft 64 kts 296°
2026-05-05 19:26 43.30400 -2.91809 138 ft 33 kts 301°
2026-05-05 19:26 43.30542 -2.92000 141 ft 14 kts 324°
2026-05-05 19:27 43.30631 -2.92001 149 ft 11 kts 79°
2026-05-05 19:27 43.30594 -2.91877 154 ft 16 kts 116°
2026-05-05 19:27 43.30534 -2.91713 155 ft 21 kts 116°
2026-05-05 19:27 43.30466 -2.91525 155 ft 21 kts 116°
2026-05-05 19:28 43.30395 -2.91333 150 ft 22 kts 117°
2026-05-05 19:28 43.30341 -2.91186 147 ft 15 kts 116°
2026-05-05 19:28 43.30313 -2.91046 145 ft 14 kts 55°
2026-05-05 19:28 43.30377 -2.90991 149 ft 7 kts 33°
2026-05-05 19:29 43.30401 -2.90936 150 ft 7 kts 78°
2026-05-05 19:29 43.30406 -2.90845 151 ft 10 kts 87°
2026-05-05 19:29 43.30423 -2.90777 155 ft 4 kts 38°
2026-05-05 19:29 43.30445 -2.90755 156 ft 4 kts 30°
2026-05-05 19:30 43.30468 -2.90739 156 ft 0 kts 26°